DLH3825 LPPT-EDDM

Flight info

Callsign DLH3825
Flight time 2h 36m
Altitude 36000
Route IXIDA DCT RIVRO DCT TOSDI DCT ZMR DCT NEA DCT DGO DCT LPA DCT GOSVI/N0450F380 DCT TOPTU DCT TOU DCT GAI DCT MEN DCT NINUN DCT LATAM DCT ETREK DCT LTP DCT SOPLO DCT OMASI DCT KINNI DCT LAMUR DCT KORED/N0449F370 DCT NUNRI T103 BETOS BETOS1B
Aircraft A320/M-SDE3FGHIRWY/LB1

Departure

Time 2026-05-07 13:50
Airport Lisbon Humberto Delgado Airport (LPPT)

Arrival

Time 2026-05-07 16:26
Airport Munich Airport (EDDM)
Time Latitude Longitude Altitude Speed Heading
2026-05-07 13:26 38.77255 -9.13149 337 ft 0 kts 77°
2026-05-07 13:40 38.77255 -9.13150 337 ft 2 kts 77°
2026-05-07 13:41 38.77251 -9.13171 332 ft 2 kts 77°
2026-05-07 13:41 38.77247 -9.13193 334 ft 3 kts 63°
2026-05-07 13:41 38.77237 -9.13210 335 ft 2 kts 36°
2026-05-07 13:41 38.77223 -9.13223 333 ft 2 kts 20°
2026-05-07 13:42 38.77207 -9.13227 335 ft 1 kts 346°
2026-05-07 13:42 38.77206 -9.13227 335 ft 0 kts 345°
2026-05-07 13:45 38.77241 -9.13237 335 ft 14 kts 347°
2026-05-07 13:45 38.77325 -9.13285 338 ft 12 kts 297°
2026-05-07 13:46 38.77314 -9.13387 345 ft 14 kts 257°
2026-05-07 13:46 38.77287 -9.13551 353 ft 22 kts 258°
2026-05-07 13:46 38.77257 -9.13734 355 ft 21 kts 258°
2026-05-07 13:46 38.77213 -9.13857 355 ft 14 kts 208°
2026-05-07 13:47 38.77109 -9.13911 356 ft 20 kts 203°
2026-05-07 13:47 38.76970 -9.13985 351 ft 23 kts 200°
2026-05-07 13:47 38.76807 -9.14071 348 ft 27 kts 204°
2026-05-07 13:47 38.76634 -9.14163 346 ft 26 kts 201°
2026-05-07 13:48 38.76591 -9.14208 339 ft 1 kts 264°
2026-05-07 13:48 38.76602 -9.14287 334 ft 16 kts 293°
2026-05-07 13:48 38.76690 -9.14363 338 ft 15 kts 15°
2026-05-07 13:48 38.76710 -9.14354 336 ft 0 kts 23°
2026-05-07 13:49 38.76729 -9.14343 339 ft 20 kts 23°
2026-05-07 13:50 38.77109 -9.14141 359 ft 94 kts 22°
2026-05-07 13:50 38.77895 -9.13723 365 ft 149 kts 22°
2026-05-07 13:50 38.78965 -9.13135 626 ft 172 kts 21°
2026-05-07 13:50 38.80044 -9.12533 1417 ft 167 kts 19°
2026-05-07 13:51 38.81118 -9.11950 2099 ft 168 kts 18°
2026-05-07 13:51 38.82195 -9.11237 2668 ft 182 kts 26°
2026-05-07 13:51 38.83334 -9.10366 3119 ft 198 kts 27°
2026-05-07 13:51 38.84571 -9.09420 3520 ft 217 kts 28°
2026-05-07 13:52 38.85925 -9.08393 3887 ft 240 kts 29°
2026-05-07 13:52 38.87408 -9.07269 4445 ft 255 kts 30°
2026-05-07 13:52 38.88974 -9.06070 5060 ft 270 kts 32°
2026-05-07 13:52 38.90457 -9.04561 5834 ft 276 kts 45°
2026-05-07 13:53 38.91871 -9.02859 6667 ft 281 kts 44°
2026-05-07 13:53 38.93328 -9.01143 7464 ft 286 kts 44°
2026-05-07 13:53 38.94812 -8.99412 8292 ft 290 kts 44°
2026-05-07 13:53 38.96320 -8.97661 9142 ft 295 kts 43°
2026-05-07 13:54 38.97854 -8.95879 9953 ft 299 kts 44°
2026-05-07 13:54 38.99420 -8.94053 10498 ft 311 kts 43°
2026-05-07 13:54 39.01069 -8.92124 10509 ft 328 kts 43°
2026-05-07 13:54 39.02818 -8.90075 10004 ft 352 kts 43°
2026-05-07 13:55 39.04631 -8.87952 9290 ft 354 kts 43°
2026-05-07 13:55 39.06440 -8.85841 8918 ft 345 kts 43°
2026-05-07 13:55 39.08172 -8.83819 8914 ft 326 kts 43°
2026-05-07 13:55 39.09802 -8.81911 8967 ft 306 kts 44°
2026-05-07 13:56 39.11310 -8.80147 9507 ft 290 kts 44°
2026-05-07 13:56 39.12826 -8.78367 10141 ft 299 kts 44°
2026-05-07 13:56 39.14383 -8.76533 10717 ft 310 kts 44°
2026-05-07 13:56 39.16018 -8.74607 11101 ft 327 kts 44°
2026-05-07 13:57 39.17648 -8.72452 11476 ft 343 kts 50°
2026-05-07 13:57 39.19264 -8.70082 11820 ft 359 kts 50°
2026-05-07 13:57 39.20939 -8.67630 12399 ft 367 kts 49°
2026-05-07 13:57 39.22633 -8.65153 13103 ft 370 kts 49°
2026-05-07 13:58 39.24321 -8.62678 13793 ft 373 kts 49°
2026-05-07 13:58 39.26066 -8.60117 14418 ft 377 kts 48°
2026-05-07 13:58 39.27783 -8.57599 14989 ft 381 kts 48°
2026-05-07 13:58 39.29538 -8.55022 15583 ft 384 kts 47°
2026-05-07 13:59 39.31314 -8.52413 16181 ft 388 kts 47°
2026-05-07 13:59 39.33102 -8.49783 16781 ft 392 kts 47°
2026-05-07 13:59 39.34905 -8.47126 17380 ft 395 kts 47°
2026-05-07 13:59 39.36722 -8.44445 17985 ft 398 kts 47°
2026-05-07 14:00 39.38551 -8.41746 18527 ft 401 kts 47°
2026-05-07 14:00 39.40395 -8.39023 19032 ft 404 kts 47°
2026-05-07 14:00 39.42256 -8.36272 19525 ft 408 kts 46°
2026-05-07 14:00 39.44137 -8.33490 20019 ft 412 kts 46°
2026-05-07 14:01 39.46027 -8.30688 20512 ft 415 kts 46°
2026-05-07 14:01 39.47931 -8.27859 20985 ft 419 kts 46°
2026-05-07 14:01 39.49852 -8.25006 21458 ft 422 kts 46°
2026-05-07 14:01 39.51791 -8.22130 21921 ft 425 kts 46°
2026-05-07 14:02 39.53740 -8.19234 22381 ft 428 kts 45°
2026-05-07 14:02 39.55705 -8.16310 22828 ft 431 kts 45°
2026-05-07 14:02 39.57679 -8.13371 23257 ft 435 kts 45°
2026-05-07 14:02 39.59670 -8.10405 23651 ft 437 kts 45°
2026-05-07 14:03 39.61671 -8.07421 23996 ft 440 kts 45°
2026-05-07 14:03 39.63684 -8.04416 24337 ft 442 kts 45°
2026-05-07 14:03 39.65711 -8.01395 24672 ft 444 kts 44°
2026-05-07 14:03 39.67806 -7.98433 24996 ft 446 kts 42°
2026-05-07 14:04 39.69976 -7.95550 25309 ft 447 kts 40°
2026-05-07 14:04 39.72194 -7.92708 25632 ft 449 kts 39°
2026-05-07 14:04 39.74410 -7.89902 25922 ft 452 kts 39°
2026-05-07 14:04 39.76664 -7.87038 26218 ft 454 kts 39°
2026-05-07 14:05 39.78915 -7.84138 26500 ft 457 kts 40°
2026-05-07 14:05 39.81162 -7.81199 26793 ft 459 kts 40°
2026-05-07 14:05 39.83409 -7.78234 27080 ft 461 kts 40°
2026-05-07 14:05 39.85660 -7.75245 27359 ft 463 kts 40°
2026-05-07 14:06 39.87914 -7.72244 27625 ft 465 kts 40°
2026-05-07 14:06 39.90185 -7.69223 27893 ft 468 kts 40°
2026-05-07 14:06 39.92468 -7.66191 28141 ft 470 kts 40°
2026-05-07 14:06 39.94764 -7.63146 28399 ft 472 kts 39°
2026-05-07 14:07 39.97068 -7.60095 28642 ft 473 kts 40°
2026-05-07 14:07 39.99384 -7.57029 28877 ft 475 kts 40°
2026-05-07 14:07 40.01708 -7.53946 29102 ft 477 kts 40°
2026-05-07 14:07 40.04039 -7.50852 29322 ft 479 kts 39°
2026-05-07 14:08 40.06376 -7.47742 29522 ft 480 kts 40°
2026-05-07 14:08 40.08712 -7.44623 29740 ft 481 kts 39°
2026-05-07 14:08 40.11047 -7.41498 30013 ft 480 kts 39°
2026-05-07 14:08 40.13372 -7.38383 30269 ft 479 kts 39°
2026-05-07 14:09 40.15707 -7.35257 30520 ft 479 kts 39°
2026-05-07 14:09 40.18022 -7.32156 30756 ft 479 kts 39°
2026-05-07 14:09 40.20354 -7.29026 30992 ft 478 kts 39°
2026-05-07 14:09 40.22677 -7.25912 31238 ft 478 kts 39°
2026-05-07 14:10 40.24998 -7.22798 31473 ft 478 kts 39°
2026-05-07 14:10 40.27315 -7.19685 31722 ft 477 kts 39°
2026-05-07 14:10 40.29630 -7.16572 31971 ft 477 kts 39°
2026-05-07 14:10 40.31941 -7.13462 32222 ft 476 kts 38°
2026-05-07 14:11 40.34221 -7.10389 32466 ft 476 kts 38°
2026-05-07 14:11 40.36530 -7.07274 32710 ft 476 kts 38°
2026-05-07 14:11 40.38860 -7.04121 32954 ft 476 kts 38°
2026-05-07 14:11 40.41131 -7.01044 33191 ft 475 kts 38°
2026-05-07 14:12 40.43420 -6.97945 33419 ft 475 kts 38°
2026-05-07 14:12 40.45731 -6.94820 33665 ft 474 kts 38°
2026-05-07 14:12 40.48026 -6.91713 33902 ft 474 kts 38°
2026-05-07 14:12 40.50323 -6.88593 34094 ft 474 kts 38°
2026-05-07 14:13 40.52611 -6.85480 34289 ft 474 kts 38°
2026-05-07 14:13 40.54908 -6.82354 34482 ft 474 kts 38°
2026-05-07 14:13 40.57200 -6.79234 34665 ft 474 kts 38°
2026-05-07 14:13 40.59485 -6.76114 34839 ft 474 kts 39°
2026-05-07 14:14 40.61774 -6.72981 35016 ft 474 kts 39°
2026-05-07 14:14 40.64100 -6.69923 35177 ft 472 kts 37°
2026-05-07 14:14 40.66505 -6.66996 35338 ft 470 kts 34°
2026-05-07 14:14 40.68967 -6.64163 35498 ft 469 kts 34°
2026-05-07 14:15 40.71444 -6.61375 35661 ft 468 kts 34°
2026-05-07 14:15 40.73918 -6.58583 35822 ft 469 kts 34°
2026-05-07 14:15 40.76381 -6.55760 35874 ft 469 kts 35°
2026-05-07 14:16 40.81260 -6.50038 35875 ft 469 kts 36°
2026-05-07 14:16 40.86103 -6.44279 35872 ft 468 kts 36°
2026-05-07 14:17 40.90944 -6.38525 35876 ft 467 kts 36°
2026-05-07 14:17 40.95779 -6.32789 35877 ft 467 kts 36°
2026-05-07 14:18 41.00579 -6.27088 35878 ft 466 kts 36°
2026-05-07 14:18 41.05404 -6.21338 35880 ft 466 kts 37°
2026-05-07 14:19 41.10233 -6.15578 35884 ft 466 kts 37°
2026-05-07 14:19 41.15055 -6.09817 35881 ft 466 kts 37°
2026-05-07 14:20 41.19866 -6.04052 35883 ft 466 kts 37°
2026-05-07 14:20 41.24669 -5.98281 35881 ft 465 kts 38°
2026-05-07 14:21 41.29469 -5.92499 35889 ft 465 kts 38°
2026-05-07 14:21 41.34270 -5.86712 35889 ft 465 kts 38°
2026-05-07 14:22 41.39018 -5.80965 35888 ft 465 kts 38°
2026-05-07 14:22 41.43822 -5.75157 35888 ft 465 kts 38°
2026-05-07 14:23 41.48609 -5.69355 35888 ft 465 kts 38°
2026-05-07 14:23 41.53012 -5.63010 35890 ft 471 kts 53°
2026-05-07 14:24 41.55969 -5.55150 35892 ft 476 kts 64°
2026-05-07 14:24 41.58645 -5.47073 35890 ft 475 kts 63°
2026-05-07 14:25 41.61326 -5.39008 35892 ft 475 kts 64°
2026-05-07 14:25 41.64004 -5.30922 35898 ft 475 kts 64°
2026-05-07 14:26 41.66666 -5.22839 35902 ft 475 kts 64°
2026-05-07 14:26 41.69307 -5.14802 35911 ft 475 kts 64°
2026-05-07 14:27 41.71959 -5.06716 35916 ft 474 kts 64°
2026-05-07 14:27 41.74605 -4.98630 35923 ft 474 kts 65°
2026-05-07 14:28 41.77222 -4.90593 35923 ft 462 kts 65°
2026-05-07 14:28 41.79782 -4.82707 35920 ft 461 kts 65°
2026-05-07 14:29 41.82343 -4.74817 35917 ft 461 kts 65°
2026-05-07 14:29 41.84898 -4.66925 35913 ft 461 kts 65°
2026-05-07 14:30 41.87431 -4.59037 35908 ft 461 kts 66°
2026-05-07 14:30 41.88698 -4.55085 35775 ft 460 kts 66°
2026-05-07 14:30 41.89963 -4.51145 35083 ft 463 kts 66°
2026-05-07 14:30 41.90812 -4.48500 34531 ft 468 kts 66°
2026-05-07 14:31 41.92540 -4.43108 34078 ft 473 kts 66°
2026-05-07 14:31 41.93402 -4.40413 33948 ft 473 kts 66°
2026-05-07 14:31 41.94698 -4.36352 33885 ft 474 kts 66°
2026-05-07 14:32 41.97288 -4.28210 33906 ft 474 kts 66°
2026-05-07 14:32 41.99873 -4.20063 33914 ft 474 kts 66°
2026-05-07 14:33 42.02448 -4.11904 33908 ft 473 kts 66°
2026-05-07 14:33 42.05139 -4.03835 33906 ft 473 kts 64°
2026-05-07 14:34 42.08016 -3.95875 33899 ft 473 kts 64°
2026-05-07 14:34 42.10895 -3.87915 33905 ft 473 kts 64°
2026-05-07 14:35 42.13713 -3.79913 33902 ft 473 kts 65°
2026-05-07 14:35 42.16495 -3.71895 33919 ft 473 kts 65°
2026-05-07 14:36 42.19287 -3.63855 33907 ft 473 kts 65°
2026-05-07 14:36 42.22083 -3.55827 33920 ft 473 kts 66°
2026-05-07 14:37 42.24877 -3.47781 33922 ft 473 kts 66°
2026-05-07 14:37 42.29060 -3.35685 33919 ft 474 kts 66°
2026-05-07 14:38 42.31824 -3.27656 33918 ft 474 kts 66°
2026-05-07 14:38 42.34598 -3.19571 33919 ft 474 kts 66°
2026-05-07 14:39 42.37368 -3.11489 33915 ft 474 kts 67°
2026-05-07 14:39 42.40131 -3.03401 33915 ft 474 kts 67°
2026-05-07 14:40 42.42886 -2.95302 33907 ft 474 kts 67°
2026-05-07 14:40 42.45082 -2.86955 33912 ft 469 kts 82°
2026-05-07 14:41 42.45480 -2.78216 33924 ft 464 kts 92°
2026-05-07 14:41 42.45597 -2.69476 33911 ft 464 kts 92°
2026-05-07 14:42 42.45725 -2.60748 33921 ft 463 kts 92°
2026-05-07 14:42 42.45840 -2.52025 33920 ft 463 kts 92°
2026-05-07 14:43 42.45943 -2.43303 33925 ft 463 kts 92°
2026-05-07 14:43 42.46050 -2.34580 33915 ft 464 kts 90°
2026-05-07 14:44 42.47188 -2.25936 33917 ft 468 kts 80°
2026-05-07 14:44 42.48635 -2.17337 33918 ft 468 kts 81°
2026-05-07 14:45 42.50051 -2.08712 33914 ft 469 kts 81°
2026-05-07 14:45 42.51471 -2.00081 33912 ft 469 kts 81°
2026-05-07 14:46 42.52890 -1.91437 33911 ft 470 kts 81°
2026-05-07 14:46 42.54307 -1.82778 33929 ft 470 kts 81°
2026-05-07 14:47 42.55717 -1.74105 33936 ft 471 kts 81°
2026-05-07 14:47 42.57121 -1.65415 33933 ft 472 kts 81°
2026-05-07 14:48 42.58512 -1.56766 33938 ft 472 kts 81°
2026-05-07 14:48 42.59909 -1.48046 33938 ft 473 kts 81°
2026-05-07 14:49 42.61299 -1.39325 33937 ft 473 kts 81°
2026-05-07 14:49 42.62681 -1.30576 33936 ft 474 kts 81°
2026-05-07 14:50 42.64065 -1.21799 33937 ft 475 kts 81°
2026-05-07 14:50 42.65439 -1.13026 33937 ft 474 kts 81°
2026-05-07 14:51 42.66801 -1.04276 33937 ft 474 kts 82°
2026-05-07 14:51 42.68168 -0.95489 34231 ft 476 kts 81°
2026-05-07 14:52 42.68840 -0.91146 34435 ft 476 kts 81°
2026-05-07 14:52 42.69519 -0.86747 34637 ft 476 kts 81°
2026-05-07 14:52 42.70198 -0.82335 34833 ft 476 kts 81°
2026-05-07 14:52 42.70872 -0.77928 35014 ft 476 kts 81°
2026-05-07 14:53 42.71543 -0.73516 35197 ft 476 kts 81°
2026-05-07 14:53 42.72212 -0.69104 35378 ft 477 kts 81°
2026-05-07 14:53 42.72879 -0.64688 35541 ft 477 kts 81°
2026-05-07 14:53 42.73547 -0.60269 35706 ft 477 kts 81°
2026-05-07 14:54 42.74216 -0.55850 35875 ft 477 kts 81°
2026-05-07 14:54 42.74885 -0.51428 35948 ft 478 kts 81°
2026-05-07 14:54 42.76217 -0.42566 35958 ft 478 kts 81°
2026-05-07 14:55 42.77539 -0.33700 35970 ft 478 kts 82°
2026-05-07 14:55 42.78899 -0.24830 35973 ft 480 kts 77°
2026-05-07 14:56 42.81603 -0.16485 35974 ft 486 kts 58°
2026-05-07 14:56 42.85781 -0.09215 35965 ft 488 kts 52°
2026-05-07 14:57 42.90084 -0.02063 35963 ft 488 kts 52°
2026-05-07 14:57 42.94373 0.05112 35964 ft 488 kts 52°
2026-05-07 14:58 42.98661 0.12283 35963 ft 488 kts 52°
2026-05-07 14:58 43.02928 0.19432 35959 ft 488 kts 52°
2026-05-07 14:59 43.07211 0.26643 35965 ft 488 kts 52°
2026-05-07 14:59 43.11492 0.33858 35970 ft 488 kts 52°
2026-05-07 15:00 43.15764 0.41081 35969 ft 488 kts 52°
2026-05-07 15:00 43.20028 0.48307 35971 ft 488 kts 52°
2026-05-07 15:01 43.24297 0.55554 35974 ft 488 kts 52°
2026-05-07 15:01 43.28549 0.62800 35977 ft 487 kts 52°
2026-05-07 15:02 43.32793 0.70043 35981 ft 487 kts 52°
2026-05-07 15:02 43.37034 0.77282 35984 ft 486 kts 52°
2026-05-07 15:03 43.41268 0.84544 35979 ft 486 kts 52°
2026-05-07 15:03 43.45496 0.91818 35979 ft 486 kts 52°
2026-05-07 15:04 43.49716 0.99096 35972 ft 486 kts 52°
2026-05-07 15:04 43.53905 1.06337 35977 ft 486 kts 52°
2026-05-07 15:05 43.58117 1.13633 35987 ft 486 kts 52°
2026-05-07 15:05 43.62320 1.20927 35982 ft 486 kts 52°
2026-05-07 15:06 43.66517 1.28229 35977 ft 486 kts 52°
2026-05-07 15:06 43.70671 1.35607 35984 ft 485 kts 53°
2026-05-07 15:07 43.74667 1.43120 35989 ft 485 kts 55°
2026-05-07 15:07 43.78621 1.50694 35980 ft 485 kts 54°
2026-05-07 15:08 43.82606 1.58237 35996 ft 485 kts 54°
2026-05-07 15:08 43.86615 1.65759 35998 ft 485 kts 54°
2026-05-07 15:09 43.90605 1.73287 35998 ft 484 kts 54°
2026-05-07 15:09 43.94585 1.80831 35980 ft 484 kts 54°
2026-05-07 15:10 43.98502 1.88419 35985 ft 484 kts 56°
2026-05-07 15:10 44.02287 1.96073 35981 ft 483 kts 56°
2026-05-07 15:11 44.06093 2.03847 35980 ft 483 kts 56°
2026-05-07 15:11 44.09872 2.11498 35989 ft 483 kts 56°
2026-05-07 15:12 44.13697 2.19192 35980 ft 483 kts 56°
2026-05-07 15:12 44.17511 2.26898 35984 ft 483 kts 56°
2026-05-07 15:13 44.21298 2.34619 35979 ft 483 kts 56°
2026-05-07 15:13 44.25082 2.42348 35989 ft 483 kts 56°
2026-05-07 15:14 44.28877 2.50087 35977 ft 482 kts 56°
2026-05-07 15:14 44.32657 2.57832 35972 ft 483 kts 56°
2026-05-07 15:15 44.36429 2.65581 35976 ft 482 kts 56°
2026-05-07 15:15 44.40204 2.73347 35977 ft 482 kts 56°
2026-05-07 15:16 44.43940 2.81055 35973 ft 483 kts 56°
2026-05-07 15:16 44.47100 2.87604 35974 ft 483 kts 56°
2026-05-07 15:17 44.50850 2.95397 35974 ft 483 kts 56°
2026-05-07 15:17 44.54583 3.03156 35974 ft 483 kts 56°
2026-05-07 15:18 44.58334 3.10991 35973 ft 483 kts 56°
2026-05-07 15:18 44.62031 3.18882 35972 ft 484 kts 59°
2026-05-07 15:19 44.65389 3.27058 35972 ft 483 kts 62°
2026-05-07 15:19 44.68574 3.35383 35975 ft 484 kts 62°
2026-05-07 15:20 44.71804 3.43681 35973 ft 484 kts 61°
2026-05-07 15:20 44.75102 3.51929 35969 ft 484 kts 61°
2026-05-07 15:21 44.78407 3.60185 35973 ft 484 kts 61°
2026-05-07 15:21 44.81692 3.68464 35979 ft 484 kts 61°
2026-05-07 15:22 44.84960 3.76760 35983 ft 484 kts 61°
2026-05-07 15:22 44.88226 3.85073 35983 ft 484 kts 61°
2026-05-07 15:23 44.91486 3.93390 35981 ft 485 kts 61°
2026-05-07 15:23 44.94753 4.01720 35996 ft 485 kts 61°
2026-05-07 15:24 44.98013 4.10057 36000 ft 485 kts 61°
2026-05-07 15:24 45.01261 4.18412 36001 ft 485 kts 62°
2026-05-07 15:25 45.04485 4.26734 35995 ft 485 kts 61°
2026-05-07 15:25 45.07731 4.35115 35987 ft 485 kts 62°
2026-05-07 15:26 45.10966 4.43494 35991 ft 485 kts 62°
2026-05-07 15:26 45.14192 4.51906 35989 ft 486 kts 62°
2026-05-07 15:27 45.17415 4.60332 36004 ft 486 kts 62°
2026-05-07 15:27 45.20638 4.68768 36002 ft 486 kts 62°
2026-05-07 15:28 45.23850 4.77211 36001 ft 486 kts 62°
2026-05-07 15:28 45.27036 4.85605 35994 ft 486 kts 62°
2026-05-07 15:29 45.30267 4.94121 35996 ft 487 kts 62°
2026-05-07 15:29 45.33465 5.02592 35993 ft 487 kts 62°
2026-05-07 15:30 45.36636 5.11035 35995 ft 487 kts 62°
2026-05-07 15:30 45.39818 5.19532 35997 ft 487 kts 62°
2026-05-07 15:31 45.43006 5.28051 35996 ft 487 kts 62°
2026-05-07 15:31 45.46190 5.36574 35995 ft 488 kts 62°
2026-05-07 15:32 45.49838 5.44683 35998 ft 486 kts 47°
2026-05-07 15:32 45.54664 5.51249 35983 ft 484 kts 39°
2026-05-07 15:33 45.59694 5.57650 35977 ft 484 kts 39°
2026-05-07 15:33 45.64710 5.64068 35977 ft 484 kts 39°
2026-05-07 15:34 45.69721 5.70515 35973 ft 484 kts 40°
2026-05-07 15:34 45.74730 5.76962 35975 ft 484 kts 39°
2026-05-07 15:35 45.79744 5.83397 35972 ft 484 kts 39°
2026-05-07 15:35 45.84759 5.89842 35973 ft 484 kts 39°
2026-05-07 15:36 45.89726 5.96257 35980 ft 484 kts 39°
2026-05-07 15:36 45.94722 6.02734 35975 ft 483 kts 39°
2026-05-07 15:37 45.99710 6.09210 35983 ft 483 kts 39°
2026-05-07 15:37 46.04697 6.15692 35987 ft 483 kts 39°
2026-05-07 15:38 46.09485 6.22472 36006 ft 485 kts 49°
2026-05-07 15:38 46.13420 6.30421 36004 ft 487 kts 53°
2026-05-07 15:39 46.17318 6.38416 36006 ft 487 kts 53°
2026-05-07 15:39 46.21220 6.46404 36006 ft 487 kts 53°
2026-05-07 15:40 46.25109 6.54415 36003 ft 487 kts 53°
2026-05-07 15:40 46.28960 6.62383 36006 ft 486 kts 53°
2026-05-07 15:41 46.32826 6.70414 36004 ft 487 kts 53°
2026-05-07 15:41 46.36688 6.78451 36008 ft 487 kts 53°
2026-05-07 15:42 46.38448 6.82117 36015 ft 486 kts 53°
2026-05-07 15:42 46.39177 6.83744 36024 ft 485 kts 60°
2026-05-07 15:43 46.42486 6.92329 36005 ft 486 kts 53°
2026-05-07 15:43 46.46625 7.00038 35997 ft 485 kts 48°
2026-05-07 15:44 46.50796 7.07750 36014 ft 485 kts 51°
2026-05-07 15:44 46.51435 7.09017 36012 ft 485 kts 52°
2026-05-07 15:45 46.59208 7.23065 36018 ft 478 kts 35°
2026-05-07 15:45 46.64907 7.27821 36005 ft 471 kts 20°
2026-05-07 15:46 46.73853 7.33767 36019 ft 471 kts 21°
2026-05-07 15:47 46.79732 7.37843 36024 ft 472 kts 26°
2026-05-07 15:47 46.84936 7.43759 35999 ft 480 kts 45°
2026-05-07 15:48 46.88589 7.51737 35993 ft 484 kts 62°
2026-05-07 15:48 46.91596 7.60555 35999 ft 485 kts 62°
2026-05-07 15:49 46.94610 7.69391 36010 ft 485 kts 62°
2026-05-07 15:49 46.97615 7.78233 36008 ft 485 kts 62°
2026-05-07 15:50 47.00589 7.87025 36019 ft 484 kts 62°
2026-05-07 15:50 47.03572 7.95883 36029 ft 484 kts 62°
2026-05-07 15:51 47.06546 8.04761 36031 ft 485 kts 62°
2026-05-07 15:51 47.09501 8.13604 36042 ft 484 kts 62°
2026-05-07 15:52 47.12464 8.22479 36031 ft 484 kts 62°
2026-05-07 15:52 47.15416 8.31355 36027 ft 484 kts 62°
2026-05-07 15:53 47.18367 8.40277 36039 ft 484 kts 63°
2026-05-07 15:53 47.21312 8.49189 36047 ft 484 kts 62°
2026-05-07 15:54 47.24251 8.58107 36038 ft 485 kts 63°
2026-05-07 15:54 47.27171 8.67053 36053 ft 485 kts 63°
2026-05-07 15:55 47.30069 8.75932 36037 ft 484 kts 63°
2026-05-07 15:55 47.32984 8.84879 36031 ft 484 kts 63°
2026-05-07 15:56 47.35883 8.93834 36034 ft 484 kts 63°
2026-05-07 15:56 47.38772 9.02788 36034 ft 483 kts 63°
2026-05-07 15:57 47.41655 9.11751 36033 ft 483 kts 63°
2026-05-07 15:57 47.44532 9.20709 36036 ft 483 kts 63°
2026-05-07 15:58 47.46920 9.28168 36040 ft 483 kts 63°
2026-05-07 15:58 47.49785 9.37156 36044 ft 483 kts 63°
2026-05-07 15:59 47.52638 9.46153 36049 ft 483 kts 64°
2026-05-07 16:00 47.57905 9.64922 36036 ft 483 kts 79°
2026-05-07 16:00 47.58290 9.74820 36015 ft 482 kts 95°
2026-05-07 16:01 47.57871 9.84739 35509 ft 482 kts 94°
2026-05-07 16:01 47.57673 9.89694 34769 ft 482 kts 94°
2026-05-07 16:01 47.57476 9.94654 34009 ft 482 kts 94°
2026-05-07 16:01 47.57274 9.99603 33121 ft 481 kts 94°
2026-05-07 16:02 47.57067 10.04553 32258 ft 480 kts 94°
2026-05-07 16:02 47.56857 10.09464 31423 ft 477 kts 94°
2026-05-07 16:02 47.56645 10.14348 30563 ft 475 kts 94°
2026-05-07 16:02 47.56437 10.19108 29725 ft 472 kts 94°
2026-05-07 16:03 47.56226 10.23915 29018 ft 464 kts 94°
2026-05-07 16:03 47.56017 10.28646 28284 ft 458 kts 94°
2026-05-07 16:03 47.55809 10.33335 27553 ft 454 kts 94°
2026-05-07 16:03 47.55601 10.37977 26847 ft 449 kts 94°
2026-05-07 16:04 47.55393 10.42558 26170 ft 445 kts 94°
2026-05-07 16:04 47.55193 10.47106 25506 ft 441 kts 92°
2026-05-07 16:04 47.55303 10.51620 24863 ft 437 kts 83°
2026-05-07 16:04 47.55870 10.56011 24226 ft 432 kts 74°
2026-05-07 16:05 47.56867 10.60181 23608 ft 428 kts 65°
2026-05-07 16:05 47.58256 10.64045 22917 ft 423 kts 57°
2026-05-07 16:05 47.59773 10.67762 22271 ft 420 kts 58°
2026-05-07 16:05 47.61262 10.71454 21669 ft 416 kts 58°
2026-05-07 16:06 47.62718 10.75085 21083 ft 412 kts 58°
2026-05-07 16:06 47.64174 10.78729 20540 ft 409 kts 58°
2026-05-07 16:06 47.65614 10.82342 20008 ft 405 kts 58°
2026-05-07 16:06 47.67057 10.85918 19480 ft 402 kts 56°
2026-05-07 16:07 47.68734 10.89187 18962 ft 397 kts 46°
2026-05-07 16:07 47.70714 10.92004 18444 ft 392 kts 37°
2026-05-07 16:07 47.72847 10.94509 17853 ft 389 kts 37°
2026-05-07 16:07 47.74962 10.97000 17269 ft 387 kts 37°
2026-05-07 16:08 47.77060 10.99486 16690 ft 384 kts 37°
2026-05-07 16:08 47.78929 11.02311 16137 ft 384 kts 53°
2026-05-07 16:08 47.80372 11.05636 15591 ft 382 kts 57°
2026-05-07 16:08 47.81785 11.08988 15030 ft 381 kts 57°
2026-05-07 16:09 47.83182 11.12320 14507 ft 379 kts 57°
2026-05-07 16:09 47.84572 11.15648 13984 ft 377 kts 57°
2026-05-07 16:09 47.85948 11.18955 13447 ft 375 kts 57°
2026-05-07 16:09 47.87315 11.22242 12884 ft 372 kts 57°
2026-05-07 16:10 47.88674 11.25506 12343 ft 369 kts 57°
2026-05-07 16:10 47.90020 11.28736 11794 ft 366 kts 57°
2026-05-07 16:10 47.91354 11.31937 11269 ft 362 kts 57°
2026-05-07 16:10 47.92675 11.35109 10731 ft 359 kts 57°
2026-05-07 16:11 47.93988 11.38264 10218 ft 356 kts 57°
2026-05-07 16:11 47.95289 11.41393 10022 ft 352 kts 57°
2026-05-07 16:11 47.96539 11.44415 10021 ft 332 kts 57°
2026-05-07 16:11 47.97718 11.47267 10026 ft 313 kts 57°
2026-05-07 16:12 47.98825 11.49939 10031 ft 304 kts 57°
2026-05-07 16:12 47.99938 11.52625 10029 ft 304 kts 57°
2026-05-07 16:12 48.01051 11.55311 10030 ft 304 kts 57°
2026-05-07 16:12 48.02163 11.58006 10029 ft 305 kts 57°
2026-05-07 16:13 48.03271 11.60702 10033 ft 305 kts 58°
2026-05-07 16:13 48.04381 11.63404 10028 ft 304 kts 57°
2026-05-07 16:13 48.05666 11.65903 10029 ft 303 kts 46°
2026-05-07 16:13 48.07116 11.68195 10029 ft 304 kts 45°
2026-05-07 16:14 48.08604 11.70497 10028 ft 303 kts 44°
2026-05-07 16:14 48.10069 11.72760 10030 ft 304 kts 44°
2026-05-07 16:14 48.11541 11.75036 10035 ft 304 kts 44°
2026-05-07 16:14 48.13013 11.77307 10031 ft 303 kts 44°
2026-05-07 16:15 48.14484 11.79570 10030 ft 303 kts 44°
2026-05-07 16:15 48.15956 11.81841 10027 ft 304 kts 45°
2026-05-07 16:15 48.17435 11.84113 10037 ft 305 kts 44°
2026-05-07 16:15 48.18897 11.86355 9920 ft 303 kts 44°
2026-05-07 16:16 48.20363 11.88606 9528 ft 301 kts 44°
2026-05-07 16:16 48.21824 11.90853 9115 ft 299 kts 44°
2026-05-07 16:16 48.23270 11.93077 8709 ft 296 kts 44°
2026-05-07 16:16 48.24700 11.95277 8322 ft 294 kts 44°
2026-05-07 16:17 48.26121 11.97466 7915 ft 291 kts 45°
2026-05-07 16:17 48.27308 11.99910 7502 ft 290 kts 67°
2026-05-07 16:17 48.27774 12.02826 7108 ft 287 kts 83°
2026-05-07 16:17 48.28000 12.05803 6665 ft 286 kts 84°
2026-05-07 16:18 48.28196 12.08768 6254 ft 284 kts 84°
2026-05-07 16:18 48.28384 12.11709 5825 ft 282 kts 84°
2026-05-07 16:18 48.28561 12.14643 5389 ft 281 kts 84°
2026-05-07 16:18 48.28722 12.17552 4997 ft 278 kts 85°
2026-05-07 16:19 48.28533 12.20414 4567 ft 276 kts 105°
2026-05-07 16:19 48.28190 12.23219 4132 ft 272 kts 86°
2026-05-07 16:19 48.28703 12.25913 4018 ft 269 kts 56°
2026-05-07 16:19 48.29999 12.27885 4024 ft 267 kts 28°
2026-05-07 16:20 48.31712 12.28674 4024 ft 262 kts
2026-05-07 16:20 48.33530 12.28642 4023 ft 261 kts 355°
2026-05-07 16:20 48.35336 12.28460 4026 ft 260 kts 349°
2026-05-07 16:20 48.36973 12.27425 4028 ft 256 kts 320°
2026-05-07 16:21 48.38071 12.25354 4024 ft 255 kts 298°
2026-05-07 16:21 48.38670 12.22855 4028 ft 256 kts 274°
2026-05-07 16:21 48.38239 12.20262 4031 ft 259 kts 239°
2026-05-07 16:21 48.37236 12.17996 4020 ft 258 kts 245°
2026-05-07 16:22 48.36897 12.15389 4027 ft 257 kts 272°
2026-05-07 16:22 48.36884 12.12693 4028 ft 257 kts 267°
2026-05-07 16:22 48.36711 12.10046 4034 ft 257 kts 264°
2026-05-07 16:22 48.36500 12.07344 4034 ft 257 kts 264°
2026-05-07 16:23 48.36301 12.04714 4024 ft 256 kts 265°
2026-05-07 16:23 48.36102 12.02040 4023 ft 245 kts 265°
2026-05-07 16:23 48.35925 11.99671 4001 ft 218 kts 265°
2026-05-07 16:23 48.35758 11.97427 3819 ft 214 kts 265°
2026-05-07 16:24 48.35595 11.95241 3566 ft 213 kts 265°
2026-05-07 16:24 48.35430 11.93042 3294 ft 207 kts 266°
2026-05-07 16:24 48.35273 11.90956 3043 ft 192 kts 265°
2026-05-07 16:24 48.35130 11.89080 2805 ft 167 kts 266°
2026-05-07 16:25 48.35007 11.87452 2560 ft 148 kts 264°
2026-05-07 16:25 48.34892 11.85982 2283 ft 137 kts 266°
2026-05-07 16:25 48.34783 11.84526 2058 ft 142 kts 267°
2026-05-07 16:25 48.34675 11.83064 1853 ft 140 kts 268°
2026-05-07 16:26 48.34564 11.81599 1684 ft 142 kts 267°
2026-05-07 16:26 48.34452 11.80133 1490 ft 138 kts 266°
2026-05-07 16:26 48.34359 11.78908 1478 ft 91 kts 264°
2026-05-07 16:26 48.34323 11.78437 1486 ft 49 kts 263°
2026-05-07 16:27 48.34302 11.78150 1486 ft 20 kts 263°
2026-05-07 16:27 48.34280 11.77844 1486 ft 30 kts 262°
2026-05-07 16:27 48.34256 11.77546 1482 ft 28 kts 262°
2026-05-07 16:27 48.34256 11.77289 1483 ft 21 kts 288°
2026-05-07 16:28 48.34306 11.77092 1484 ft 14 kts 294°
2026-05-07 16:28 48.34313 11.77070 1484 ft 0 kts 294°
2026-05-07 16:29 48.34335 11.76994 1477 ft 14 kts 293°
2026-05-07 16:29 48.34384 11.76823 1480 ft 20 kts 294°
2026-05-07 16:29 48.34483 11.76697 1476 ft 19 kts 358°
2026-05-07 16:29 48.34608 11.76678 1481 ft 10 kts 351°
2026-05-07 16:30 48.34613 11.76677 1477 ft 0 kts 359°
2026-05-07 16:30 48.34623 11.76708 1483 ft 10 kts 79°
2026-05-07 16:30 48.34592 11.76759 1483 ft 21 kts 132°
2026-05-07 16:30 48.34586 11.76873 1482 ft 18 kts 83°
2026-05-07 16:31 48.34602 11.77094 1486 ft 20 kts 83°
2026-05-07 16:31 48.34618 11.77302 1486 ft 20 kts 83°
2026-05-07 16:31 48.34635 11.77519 1486 ft 20 kts 83°
2026-05-07 16:31 48.34650 11.77718 1476 ft 17 kts 84°
2026-05-07 16:32 48.34664 11.77903 1486 ft 19 kts 82°
2026-05-07 16:32 48.34681 11.78110 1486 ft 21 kts 82°
2026-05-07 16:32 48.34697 11.78338 1478 ft 23 kts 83°
2026-05-07 16:32 48.34718 11.78585 1481 ft 22 kts 85°
2026-05-07 16:33 48.34733 11.78803 1486 ft 21 kts 84°
2026-05-07 16:33 48.34752 11.79037 1482 ft 24 kts 83°
2026-05-07 16:33 48.34768 11.79255 1475 ft 20 kts 83°
2026-05-07 16:33 48.34785 11.79455 1476 ft 8 kts 85°
2026-05-07 16:34 48.34785 11.79457 1476 ft 0 kts 85°
2026-05-07 16:34 48.34787 11.79496 1480 ft 9 kts 83°
2026-05-07 16:34 48.34810 11.79550 1483 ft 8 kts 28°
2026-05-07 16:34 48.34870 11.79556 1476 ft 10 kts 350°
2026-05-07 16:35 48.34890 11.79551 1479 ft 0 kts 351°
2026-05-07 16:35 48.34929 11.79544 1480 ft 10 kts 356°
2026-05-07 16:35 48.34986 11.79573 1476 ft 8 kts 40°
2026-05-07 16:35 48.34997 11.79634 1486 ft 5 kts 66°
2026-05-07 16:36 48.35019 11.79662 1486 ft 4 kts 13°
2026-05-07 16:36 48.35110 11.79648 1480 ft 18 kts 351°
2026-05-07 16:36 48.35220 11.79628 1482 ft 4 kts 355°
2026-05-07 16:36 48.35252 11.79624 1486 ft 7 kts 356°
2026-05-07 16:37 48.35355 11.79609 1485 ft 7 kts 353°
2026-05-07 16:37 48.35383 11.79604 1480 ft 0 kts 353°
2026-05-07 16:37 48.35384 11.79604 1486 ft 1 kts 353°
2026-05-07 16:38 48.35451 11.79591 1486 ft 18 kts 353°
2026-05-07 16:38 48.35588 11.79567 1475 ft 21 kts 353°
2026-05-07 16:38 48.35727 11.79542 1486 ft 18 kts 353°
2026-05-07 16:38 48.35779 11.79545 1486 ft 6 kts 24°
2026-05-07 16:39 48.35798 11.79595 1478 ft 8 kts 74°
2026-05-07 16:39 48.35811 11.79756 1486 ft 18 kts 83°
2026-05-07 16:39 48.35826 11.79945 1486 ft 16 kts 82°
2026-05-07 16:39 48.35793 11.80063 1486 ft 12 kts 154°
2026-05-07 16:40 48.35782 11.80069 1480 ft 0 kts 163°
2026-05-07 16:40 48.35753 11.80050 1482 ft 6 kts 227°
2026-05-07 16:40 48.35750 11.80008 1486 ft 4 kts 263°
2026-05-07 16:40 48.35747 11.79971 1486 ft 4 kts 263°
2026-05-07 16:41 48.35744 11.79938 1480 ft 3 kts 263°
2026-05-07 16:41 48.35743 11.79923 1486 ft 1 kts 263°
2026-05-07 16:41 48.35743 11.79916 1486 ft 0 kts 263°